{"data":{"norad_id":65420,"epoch":"2026-09-20T13:40:56.424000Z","epoch_age_seconds":108875,"freshness":"FRESH","line1":"1 65420U 25192S   26263.57009750  .00020652  00000+0  67516-3 0  9990","line2":"2 65420  53.1593  45.5721 0001347  92.1745 267.9411 15.31712412 59249","mean_motion":15.31712412,"eccentricity":0.0001347,"inclination_deg":53.1593,"raan_deg":45.5721,"arg_perigee_deg":92.1745,"mean_anomaly_deg":267.9411,"bstar":0.00067516,"rev_number":5924,"period_min":94.012426139431,"perigee_km":469.78045720191,"apogee_km":471.62553469682,"semimajor_km":6848.8399959494,"source":"CELESTRAK","updated_at":"2026-09-21T09:00:35.605501Z"}}